Tracking 29933 objects as of 3-Dec-2024
HD Live streaming from Space Station
objects crossing your sky now

PSLV DEB

Track PSLV DEB now!
10-day predictions


NORAD ID: 34221
Int'l Code: 2001-049PR
Perigee: 517.3 km
Apogee: 577.0 km
Inclination: 98.5 °
Period: 95.4 minutes
Semi major axis: 6918 km
RCS: 0.0004 m2 (small)
Launch date: October 22, 2001
Source: India (IND)
Launch site: SRIHARIKOTA (SRI)

Note: This is SATELLITE DEBRIS
Your satellite tracking list
Your tracking list is empty




NASA's NSSDC Master Catalog

Two Line Element Set (TLE):
1 34221U 01049PR  24337.87684598  .00006119  00000-0  38628-3 0  9997
2 34221  98.5164 208.9448 0043107 219.5532 140.2546 15.08753070229601
Source of the keplerian elements: AFSPC